Location: ??? ???
(33.4974°N, 35.4618°E)
Time: 18:03:23
(UTC+00:00)

ERS-2 - Pass Details

Date: 29 October 2020
Orbit: 493 x 497 km, 98.6° (Epoch: 29 November)

Event Time Altitude Azimuth Distance (km) Brightness Sun altitude
Rises 15:40:01 0° 359° (N) 2,579 5.7 -11.3°
Reaches altitude 10° 15:42:17 10° 347° (NNW) 1,693 4.9 -11.7°
Maximum altitude 15:45:23 27° 288° (WNW) 975 4.3 -12.4°
Drops below altitude 10° 15:48:29 10° 229° (SW) 1,685 5.7 -13.0°
Sets 15:50:45 0° 217° (SW) 2,564 6.5 -13.5°
